STARLINK-31964 (59895 NORAD) Tracking and Keplerian Element Data

This shows tracking and keplerian element data for the satellite.

Feedback or suggestion? Click here.




ElementValue
Catalog59895
NameSTARLINK-31964
Epoch Orbit286
Epoch Day160.16667824
Epoch Year2024
RAAN174.3528
Inclination43.0035
Eccentricity0.0001198
Argument of Perigee265.0893
Mean Anonmoly331.4252
Mean Motion15.79960793
Decay Rate-0.01044815
L11 59895U 24100L 24160.16667824 -.01044815 00000+0 -60454-2 0 9991
L22 59895 43.0035 174.3528 0001198 265.0893 331.4252 15.79960793 2867



Live tracking and technical data element details for STARLINK-31964 (NORAD 59895). STARLINK-31964 can be tracked NOW for your location showing map with azimuth and elevation plus other details from your city location.







IsCatalogInMostPopularTable: catalog: 59895, numindb: 6
Update: records affected: 1



GetName: 59895 STARLINK-31964

Hit Count: updated at: Tue, 16 Jul 2024 03:13:46 GMT